Regional Weather Roundup
Issued by NWS Jackson, KY

Home | Current Version | Previous Version | Text Only | Print | Product List | Glossary Off
Versions: 1 2 3 4 5 6 7 8 9 10 11 12 13 14 15 16 17 18 19 20 21 22 23 24 25 26 27 28

000
ASUS43 KJKL 172310
RWRJKL

EAST KENTUCKY HOURLY WEATHER ROUNDUP
NATIONAL WEATHER SERVICE JACKSON KY
600 PM EST SUN DEC 17 2017

NOTE: "FAIR" INDICATES FEW OR NO CLOUDS BELOW 12,000 FEET WITH
NO SIGNIFICANT WEATHER AND/OR OBSTRUCTIONS TO VISIBILITY.

* THESE REPORTS ARE NOT UNDER NWS QUALITY CONTROL AND MAY NOT
  REPORT WEATHER SUCH AS PRECIPITATION AND FOG.

KYZ079-080-083-085-087-088-110-112-115-119-120-180000
...EASTERN KENTUCKY...

CITY           SKY/WX    TMP DP  RH WIND       PRES   REMARKS
JACKSON        CLOUDY    39  36  89 CALM      30.12F
LONDON         CLOUDY    42  35  76 CALM      30.12F
SOMERSET*      CLOUDY    43  34  70 S5        30.13S
MONTICELLO*    CLOUDY    44  37  76 E8        30.14R
WILLIAMSBURG*  CLOUDY    41  36  81 SE5       30.12S
MIDDLESBORO*   CLOUDY    42  36  77 SE9       30.14F
HARLAN APT*    CLOUDY    41  34  75 CALM      30.13S
PIKE CO APT*   CLOUDY    37  37 100 CALM      30.15R FOG
BIG SANDY APT* DRIZZLE   39  39 100 SE3       30.15S
MOREHEAD APT*  MOCLDY    39  37  93 CALM      30.15F FOG
$$

KYZ035-036-041-042-044-050-067-078-099-180000
...CENTRAL KENTUCKY...

CITY           SKY/WX    TMP DP  RH WIND       PRES   REMARKS
MT STERLING*   CLOUDY    37  37 100 CALM      30.15F FOG
FLEMING/MASON* CLOUDY    39  38  94 S9        30.14S WCI  33
DANVILLE*      CLOUDY    39  37  93 CALM      30.14S FOG
LEXINGTON      CLOUDY    40  37  89 CALM      30.13S FOG
FRANKFORT      CLOUDY    41  37  86 S3        30.11F
LOUISVILLE     CLOUDY    44  38  79 S7        30.11S
LEBANON*       CLOUDY    41  39  93 CALM      30.13S
GLASGOW*       CLOUDY    43  39  86 CALM      30.11F
BOWLING GREEN  CLOUDY    45  43  93 E3        30.12S
$$

KYZ091>093-OHZ055-061-077-WVZ005-015-034-035-042-180000
...SOUTHERN OHIO/WEST VIRGINIA...

CITY           SKY/WX    TMP DP  RH WIND       PRES   REMARKS
COVINGTON      CLOUDY    43  34  70 S6        30.09R
COLUMBUS       CLOUDY    40  34  79 S3        30.09F
DAYTON         CLOUDY    40  37  89 S7        30.08S
WILMINGTON     CLOUDY    39  33  79 S6        30.09R WCI  35
HUNTINGTON     CLOUDY    40  36  86 S5        30.14F
CHARLESTON     LGT RAIN  40  36  86 S6        30.14F
PINEVILLE*     MIX PCPN  37  36  96 MISG      30.20F
BECKLEY        CLOUDY    37  32  82 CALM      30.13S
BLUEFIELD      CLOUDY    36  30  79 CALM      30.13F
LOGAN CO APT*  CLOUDY    39  36  87 CALM      30.13F
$$

VAZ002-007-008-TNZ017-027-036-066-071-180000
...SOUTHWEST VIRGINIA/EAST TENNESSEE...

CITY           SKY/WX    TMP DP  RH WIND       PRES   REMARKS
WISE*          CLOUDY    37  32  81 SW3       30.12S
JONESVILLE*    CLOUDY    39  39 100 CALM      30.17S
ABINGDON*      CLOUDY    43  36  75 CALM      30.14S
BRISTOL        DRIZZLE   41  38  89 CALM      30.16S
MORRISTOWN*    CLOUDY    41  39  93 CALM      30.14F
SEVIERVILLE*   CLOUDY    41  39  93 CALM      30.15F
KNOXVILLE      CLOUDY    41  41 100 NE3       30.15S
LAFOLLETTE*    CLOUDY    43  37  81 NE3       30.16S
OAK RIDGE      CLOUDY    43  39  86 CALM      30.17S
CROSSVILLE     CLOUDY    41  38  89 S7        30.12R
NASHVILLE      CLOUDY    47  44  90 S3        30.13R FOG
$$

...KEY TO REMARKS...
VSB - VISIBILITY IN MILES
WCI - WIND CHILL INDEX
HX  - HEAT INDEX

$$




USA.gov is the U.S. government's official web portal to all federal, state and local government web resources and services.